TimeEDT,TemperatureF,Dew PointF,Humidity,Sea Level PressureIn,VisibilityMPH,Wind Direction,Wind SpeedMPH,Gust SpeedMPH,PrecipitationIn,Events,Conditions,WindDirDegrees,DateUTC
12:53 AM,48.9,46.9,93,30.08,10.0,Calm,Calm,-,N/A,,Clear,0,2013-09-30 04:53:00
1:53 AM,48.0,46.0,93,30.08,5.0,Calm,Calm,-,N/A,,Clear,0,2013-09-30 05:53:00
2:53 AM,46.9,46.0,97,30.08,10.0,Calm,Calm,-,N/A,,Mostly Cloudy,0,2013-09-30 06:53:00
3:53 AM,46.9,45.0,93,30.07,10.0,Calm,Calm,-,N/A,,Partly Cloudy,0,2013-09-30 07:53:00
4:53 AM,46.0,45.0,96,30.06,10.0,Calm,Calm,-,N/A,,Clear,0,2013-09-30 08:53:00
5:53 AM,45.0,44.1,97,30.07,10.0,Calm,Calm,-,N/A,,Partly Cloudy,0,2013-09-30 09:53:00
6:33 AM,46.4,44.6,93,30.09,10.0,Calm,Calm,-,N/A,,Mostly Cloudy,0,2013-09-30 10:33:00
6:43 AM,46.4,44.6,93,30.09,10.0,Calm,Calm,-,N/A,,Mostly Cloudy,0,2013-09-30 10:43:00
6:53 AM,45.0,43.0,93,30.09,5.0,Calm,Calm,-,N/A,,Overcast,0,2013-09-30 10:53:00
7:05 AM,46.4,44.6,93,30.09,10.0,Calm,Calm,-,N/A,,Overcast,0,2013-09-30 11:05:00
7:16 AM,46.4,44.6,93,30.10,2.0,Calm,Calm,-,N/A,,Overcast,0,2013-09-30 11:16:00
7:38 AM,48.2,46.4,93,30.10,2.0,Calm,Calm,-,N/A,,Mostly Cloudy,0,2013-09-30 11:38:00
7:53 AM,48.0,46.0,93,30.09,9.0,Calm,Calm,-,N/A,,Mostly Cloudy,0,2013-09-30 11:53:00
8:00 AM,48.2,46.4,93,30.10,6.0,Calm,Calm,-,N/A,,Mostly Cloudy,0,2013-09-30 12:00:00
8:53 AM,53.1,50.0,89,30.09,6.0,Calm,Calm,-,N/A,,Mostly Cloudy,0,2013-09-30 12:53:00
9:00 AM,53.6,50.0,88,30.09,10.0,Calm,Calm,-,N/A,,Mostly Cloudy,0,2013-09-30 13:00:00
9:53 AM,57.9,51.1,78,30.07,10.0,Calm,Calm,-,N/A,,Mostly Cloudy,0,2013-09-30 13:53:00
10:53 AM,62.1,53.1,72,30.06,10.0,Calm,Calm,-,N/A,,Clear,0,2013-09-30 14:53:00
11:53 AM,66.9,51.1,57,30.04,10.0,West,4.6,-,N/A,,Partly Cloudy,260,2013-09-30 15:53:00
12:53 PM,70.0,51.1,51,30.01,10.0,Calm,Calm,-,N/A,,Partly Cloudy,0,2013-09-30 16:53:00
1:53 PM,71.1,48.9,45,29.99,10.0,Calm,Calm,-,N/A,,Scattered Clouds,0,2013-09-30 17:53:00
2:53 PM,73.0,48.9,42,29.99,10.0,Calm,Calm,-,N/A,,Scattered Clouds,0,2013-09-30 18:53:00
3:53 PM,72.0,48.0,43,29.97,10.0,Calm,Calm,-,N/A,,Scattered Clouds,0,2013-09-30 19:53:00
4:53 PM,73.0,48.9,42,29.96,10.0,West,4.6,-,N/A,,Scattered Clouds,260,2013-09-30 20:53:00
5:53 PM,70.0,52.0,53,29.96,10.0,Calm,Calm,-,N/A,,Unknown,0,2013-09-30 21:53:00
6:53 PM,61.0,54.0,78,29.96,10.0,Calm,Calm,-,N/A,,Clear,0,2013-09-30 22:53:00
7:53 PM,57.9,54.0,87,29.97,10.0,Calm,Calm,-,N/A,,Clear,0,2013-09-30 23:53:00
8:53 PM,55.0,53.1,93,29.98,10.0,Calm,Calm,-,N/A,,Unknown,0,2013-10-01 00:53:00
9:53 PM,53.1,51.1,93,29.99,10.0,Calm,Calm,-,N/A,,Unknown,0,2013-10-01 01:53:00
10:53 PM,52.0,50.0,93,29.99,10.0,Calm,Calm,-,N/A,,Unknown,0,2013-10-01 02:53:00
11:23 PM,50.0,48.2,94,29.99,2.0,Calm,Calm,-,N/A,,Mist,0,2013-10-01 03:23:00
11:32 PM,50.0,48.2,94,29.99,6.0,Calm,Calm,-,N/A,,Mist,0,2013-10-01 03:32:00
11:53 PM,50.0,46.9,89,29.98,10.0,Calm,Calm,-,N/A,,Unknown,0,2013-10-01 03:53:00